Find Gals 1

NORAD ID: 22963 Int'l Des: 1994-002 Owner: INFK/LAND Country: RU operational
HEOCIRCULARGSO

Live Position

Loading 3D Globe...

About Gals 1

Description loading...

Upcoming Passes

Passes for default location (London). Set your location on the main map for personalized predictions.

Altitude History

Loading altitude history...

Two-Line Element Set

1 22963U 94002A 26105.80692603 .00000119 00000-0 00000+0 0 9995
2 22963 14.5375 354.3287 0010316 240.2551 301.2682 1.00320152118085
Epoch: Apr 15, 2026 • Age: 14 hours

Current Status

Altitude 35811.3 km
Velocity 3.07 km/s
Sub-Earth Point 8.24°N, 40.68°E
Launch Date Jan 20, 1994
Age 32.2 years
Type other

Technical Details

Classification Payload
Mass 2600.00 kg
Dry Mass 2400.00 kg
Total Mass 2600.00 kg
Length 6.60 m
Diameter 4.10 m
Span 10.00 m
Shape Cyl + 2 Pan
Manufacturer NPOPMR
Bus Type Gals
Phase Status Unknown Active Status
Owner/State INFK/LAND/RU

Most Searched